• Join FlightAware (Why Join?)
  • Login
  • US Flag 
08:53PM EST


 

Airport Tracker/Info


-or-


 

Live Flight TrackerFlight Track Log ✈ VNR160 ✈ 17-Apr-2013 ✈ KMCO - MYAM / MHH

Flight Track Log - Related Links

Times and Time Zones

All times are in EDT time to prevent confusion due to time zone crossing. See the VNR160 flight status page for this flight to view local times or setup timezone preferences in your user account.

Time Position Orientation Groundspeed Altitude Reporting Facility
EDT Latitude Longitude Course Direction KTS MPH feet Rate Location/Type
01:33PM 28.4333 -81.3333 53° Northeast 130 150 600  Level Orlando TRACON
01:34PM 28.4667 -81.2833 53° Northeast 163 188 2,300 1,667 Climbing Orlando TRACON
01:35PM 28.5000 -81.2500 41° Northeast 169 194 4,100 1,619 Climbing Orlando TRACON
01:36PM 28.5167 -81.1833 74° East 206 237 5,700 1,636 Climbing Orlando TRACON
01:37PM 28.5000 -81.1333 111° Southeast 187 215 7,400 1,598 Climbing Orlando TRACON
01:39PM 28.4389 -81.0069 119° Southeast 195 224 11,000 1,500 Climbing Miami Center
01:40PM 28.4114 -80.9492 118° Southeast 200 230 12,500 1,450 Climbing Miami Center
01:41PM 28.3708 -80.9100 140° Southeast 207 238 13,900 1,250 Climbing Miami Center
01:42PM 28.3092 -80.8725 152° Southeast 232 267 15,000 1,050 Climbing Miami Center
01:43PM 28.2436 -80.8325 152° Southeast 257 296 16,000 500 Climbing Miami Center
01:44PM 28.1872 -80.7597 131° Southeast 311 358 16,000  Level Miami Center
01:45PM 28.1436 -80.6664 118° Southeast 318 366 16,000 700 Level Miami Center
01:46PM 28.1003 -80.5686 117° Southeast 324 373 17,400 1,250 Climbing Miami Center
01:47PM 28.0650 -80.4850 116° Southeast 310 357 18,500 1,100 Climbing Miami Center
01:48PM 28.0275 -80.4014 117° Southeast 298 343 19,600 1,050 Climbing Miami Center
01:49PM 27.9936 -80.3253 117° Southeast 298 343 20,600 1,050 Climbing Miami Center
01:50PM 27.9561 -80.2347 115° Southeast 304 350 21,700 1,200 Climbing Miami Center
01:51PM 27.9125 -80.1394 117° Southeast 309 356 23,000 1,150 Climbing Miami Center
01:52PM 27.8728 -80.0467 116° Southeast 309 356 24,000 950 Climbing Miami Center
01:53PM 27.8328 -79.9658 119° Southeast 314 361 24,900 850 Climbing Miami Center
01:54PM 27.7950 -79.8756 115° Southeast 314 361 25,700 550 Climbing Miami Center
01:55PM 27.7492 -79.7686 116° Southeast 335 386 26,000 150 Climbing Miami Center
01:56PM 27.7033 -79.6667 117° Southeast 355 409 26,000  Level Miami Center
01:57PM 27.6572 -79.5600 116° Southeast 369 425 26,000  Level Miami Center
01:58PM 27.6131 -79.4653 118° Southeast 375 432 26,000  Level Miami Center
01:59PM 27.5650 -79.3564 116° Southeast 375 432 26,000  Level Miami Center
02:00PM 27.5106 -79.2406 118° Southeast 375 432 26,000  Level Miami Center
02:01PM 27.4642 -79.1342 116° Southeast 375 432 26,000  Level Miami Center
02:02PM 27.4136 -79.0256 118° Southeast 382 440 26,000 -150 Level Miami Center
02:03PM 27.3711 -78.9289 116° Southeast 376 433 25,700 -700 Descending Miami Center
02:04PM 27.3206 -78.8203 118° Southeast 376 433 24,600 -1,050 Descending Miami Center
02:05PM 27.2678 -78.7025 117° Southeast 376 433 23,600 -950 Descending Miami Center
02:06PM 27.2208 -78.6131 121° Southeast 367 422 22,700 -950 Descending Miami Center
02:07PM 27.1803 -78.5122 114° Southeast 362 417 21,700 -950 Descending Miami Center
02:08PM 27.1333 -78.4064 116° Southeast 369 425 20,800 -1,000 Descending Miami Center
02:09PM 27.0800 -78.3053 121° Southeast 374 430 19,700 -1,050 Descending Miami Center
02:10PM 27.0289 -78.1975 118° Southeast 368 423 18,700 -950 Descending Miami Center
02:11PM 26.9881 -78.0944 114° Southeast 362 417 17,800 -1,150 Descending Miami Center
02:12PM 26.9450 -78.0053 118° Southeast 341 392 16,400 -1,450 Descending Miami Center
02:13PM 26.9017 -77.9142 118° Southeast 334 384 14,900 -1,500 Descending Miami Center
02:14PM 26.8564 -77.8253 120° Southeast 328 377 13,400 -1,450 Descending Miami Center
02:15PM 26.8172 -77.7458 119° Southeast 317 365 12,000 -700 Descending Miami Center
02:16PM 26.7822 -77.6639 116° Southeast 306 352 12,000 -500 Level Miami Center
02:17PM 26.7408 -77.5822 120° Southeast 301 346 11,000 -1,350 Descending Miami Center
02:18PM 26.7056 -77.5031 116° Southeast 293 337 9,300 -1,700 Descending Miami Center